User: anonymous   Login
Location: G�ppingen
(48.7000°N, 9.6670°E)
Time: 05:19:57
(UTC+01:00)
Language:

Tiangong 2 - Orbit

View from above orbital plane
View from above orbital plane
View from above satellite
View from above satellite

Ground track
Ground track

The orbit data is extracted from the following two-line orbital elements,

1 41765U 16057A   19054.83188756  .00003570  00000-0  46193-4 0  9999
2 41765  42.7838 282.8360 0007643 211.1085 254.6929 15.60754297139325
Epoch (UTC): 23 February 2019 19:57:55
Eccentricity: 0.0007643
inclination: 42.7838°
perigee height: 380 km
apogee height: 390 km
right ascension of ascending node: 282.8360°
argument of perigee: 211.1085°
revolutions per day: 15.60754297
mean anomaly at epoch: 254.6929°
orbit number at epoch: 13932

The dashed part of the orbit path shows where the satellite is in the earth's shadow,  

DLR